QPF
0.01 0.01 0.01 0.03 0.03 0.05 0.07 0.06 0.04 0.03 0.02 0.02 0.02 0.02 0.01 0.01 0.01 0.01 0.02 0.02 0.02 0.02 0.03 0.03 0.03 0.05 0.05 0.06 0.06 0.03 0.02 0.01 0.01 0.01 0.01 0.02 0.03 0.05
0.01 0.01 0.02 0.02 0.01 0.02 0.03 0.03 0.02 0.01 0.01 0.01 0.02 0.02 0.01 0.01 0.01 0.01 0.01 0.02 0.02 0.02 0.02 0.01 0.01 0.01 0.01 0.03 0.07 0.06 0.04 0.02 0.02 0.01 0.01 0.01 0.02 0.02
0.02 0.03 0.03 0.02 0.01 0.01 0.01 0.01 0.01 0.01 0.01 0.01 0.01 0.01 0.01 0.01 0.01 0.01 0.01 0.01 0.01 0.01 0.01 0.01 0.00 0.00 0.00 0.01 0.02 0.02 0.03 0.03 0.03 0.02 0.02 0.02 0.02 0.02
0.02 0.02 0.02 0.01 0.01 0.00 0.00 0.01 0.01 0.01 0.01 0.01 0.01 0.01 0.01 0.01 0.01 0.00 0.00 0.00 0.00 0.00 0.01 0.01 0.01 0.01 0.01 0.01 0.01 0.00 0.01 0.01 0.01 0.01 0.01 0.01 0.02 0.02
0.01 0.01 0.01 0.01 0.01 0.01 0.00 0.00 0.00 0.00 0.00 0.01 0.01 0.00 0.00 0.00 0.00 0.00 0.00 0.00 0.00 0.00 0.00 0.01 0.01 0.01 0.02 0.02 0.01 0.01 0.01 0.01 0.01 0.01 0.01 0.01 0.02 0.02
0.01 0.01 0.01 0.01 0.02 0.01 0.01 0.00 0.00 0.00 0.00 0.00 0.00 0.00 0.00 0.00 0.00 0.00 0.00 0.00 0.00 0.00 0.00 0.00 0.00 0.01 0.01 0.02 0.02 0.01 0.01 0.01 0.01 0.01 0.01 0.01 0.02 0.02
0.01 0.01 0.01 0.01 0.01 0.01 0.01 0.01 0.00 0.00 0.00 0.00 0.00 0.00 0.00 0.00 0.00 0.00 0.00 0.00 0.00 0.00 0.00 0.00 0.00 0.00 0.01 0.01 0.01 0.01 0.00 0.00 0.00 0.00 0.01 0.01 0.01 0.01
0.01 0.01 0.01 0.00 0.00 0.00 0.00 0.00 0.00 0.00 0.00 0.00 0.00 0.00 0.00 0.00 0.00 0.00 0.00 0.00 0.00 0.00 0.00 0.00 0.00 0.00 0.00 0.00 0.00 0.00 0.00 0.00 0.00 0.00 0.00 0.01 0.01 0.01
0.01 0.01 0.02 0.01 0.01 0.01 0.00 0.00 0.00 0.00 0.00 0.00 0.00 0.00 0.00 0.00 0.00 0.00 0.00 0.00 0.00 0.00 0.00 0.00 0.00 0.00 0.00 0.00 0.00 0.00 0.00 0.01 0.01 0.00 0.00 0.00 0.00 0.00
0.01 0.01 0.01 0.01 0.00 0.00 0.00 0.00 0.00 0.00 0.00 0.00 0.00 0.00 0.00 0.00 0.00 0.00 0.00 0.00 0.00 0.00 0.00 0.00 0.00 0.00 0.00 0.00 0.00 0.00 0.00 0.00 0.00 0.00 0.00 0.00 0.00 0.00
0.01 0.01 0.01 0.01 0.01 0.00 0.00 0.00 0.00 0.00 0.00 0.00 0.00 0.00 0.00 0.00 0.00 0.00 0.00 0.00 0.00 0.00 0.00 0.00 0.00 0.00 0.00 0.00 0.00 0.00 0.00 0.00 0.00 0.00 0.00 0.00 0.00 0.00
0.01 0.01 0.01 0.01 0.01 0.01 0.01 0.00 0.00 0.00 0.00 0.00 0.00 0.00 0.00 0.00 0.00 0.00 0.00 0.00 0.00 0.00 0.00 0.00 0.00 0.00 0.00 0.00 0.00 0.00 0.00 0.00 0.00 0.00 0.00 0.00 0.00 0.00
0.01 0.01 0.01 0.01 0.01 0.01 0.01 0.01 0.01 0.01 0.00 0.00 0.00 0.00 0.00 0.00 0.00 0.00 0.00 0.00 0.00 0.00 0.00 0.00 0.00 0.00 0.01 0.01 0.01 0.00 0.00 0.00 0.00 0.00 0.00 0.00 0.00 0.00
0.01 0.01 0.01 0.01 0.01 0.01 0.01 0.01 0.01 0.01 0.01 0.01 0.01 0.01 0.00 0.00 0.00 0.00 0.00 0.00 0.00 0.00 0.00 0.01 0.01 0.01 0.01 0.01 0.01 0.00 0.00 0.00 0.00 0.00 0.00 0.00 0.00 0.00
0.02 0.02 0.01 0.01 0.01 0.01 0.01 0.01 0.01 0.01 0.01 0.01 0.01 0.01 0.01 0.01 0.00 0.00 0.00 0.01 0.01 0.00 0.01 0.01 0.01 0.01 0.01 0.01 0.01 0.00 0.00 0.00 0.00 0.00 0.00 0.00 0.00 0.00
0.01 0.02 0.02 0.01 0.01 0.01 0.01 0.01 0.02 0.02 0.02 0.02 0.02 0.02 0.01 0.01 0.01 0.01 0.01 0.01 0.00 0.00 0.00 0.00 0.00 0.00 0.01 0.01 0.00 0.00 0.00 0.01 0.01 0.00 0.00 0.00 0.01 0.01
0.03 0.03 0.02 0.02 0.01 0.01 0.01 0.02 0.02 0.02 0.02 0.02 0.01 0.01 0.01 0.01 0.01 0.01 0.00 0.00 0.00 0.00 0.01 0.01 0.01 0.01 0.01 0.00 0.00 0.00 0.00 0.01 0.01 0.01 0.01 0.01 0.01 0.01
0.01 0.02 0.03 0.03 0.02 0.01 0.02 0.02 0.02 0.02 0.02 0.02 0.01 0.01 0.01 0.00 0.01 0.00 0.00 0.00 0.00 0.00 0.00 0.00 0.00 0.01 0.01 0.01 0.01 0.01 0.01 0.01 0.01 0.01 0.01 0.01 0.01 0.01
0.00 0.00 0.01 0.01 0.01 0.01 0.01 0.01 0.01 0.01 0.01 0.01 0.02 0.01 0.01 0.01 0.01 0.01 0.01 0.01 0.01 0.01 0.01 0.01 0.00 0.01 0.01 0.01 0.00 0.01 0.01 0.01 0.01 0.01 0.01 0.01 0.01 0.00
0.00 0.00 0.01 0.01 0.01 0.01 0.01 0.01 0.01 0.01 0.01 0.01 0.01 0.01 0.01 0.02 0.02 0.02 0.02 0.02 0.02 0.02 0.02 0.01 0.01 0.01 0.02 0.02 0.01 0.01 0.01 0.01 0.01 0.01 0.01 0.01 0.01 0.01
0.00 0.00 0.01 0.01 0.01 0.01 0.01 0.01 0.01 0.01 0.01 0.01 0.01 0.01 0.01 0.02 0.02 0.03 0.03 0.03 0.03 0.02 0.02 0.02 0.02 0.02 0.02 0.02 0.02 0.01 0.01 0.01 0.01 0.01 0.01 0.01 0.01 0.01
0.01 0.01 0.01 0.01 0.01 0.01 0.01 0.01 0.01 0.01 0.00 0.01 0.01 0.01 0.01 0.01 0.01 0.02 0.02 0.02 0.03 0.02 0.02 0.02 0.02 0.02 0.03 0.03 0.03 0.02 0.01 0.01 0.01 0.00 0.00 0.01 0.01 0.01
0.02 0.01 0.01 0.01 0.01 0.01 0.01 0.01 0.01 0.01 0.01 0.01 0.01 0.01 0.01 0.02 0.02 0.02 0.02 0.02 0.02 0.02 0.02 0.02 0.02 0.03 0.03 0.03 0.03 0.03 0.02 0.02 0.01 0.01 0.01 0.00 0.01 0.01
MSLP
1023.69 1023.74 1023.78 1023.81 1023.81 1023.78 1023.74 1023.69 1023.66 1023.67 1023.74 1023.88 1024.09 1024.37 1024.68 1024.99 1025.27 1025.49 1025.63 1025.66 1025.61 1025.46 1025.26 1025.01 1024.75 1024.49 1024.23 1023.98 1023.73 1023.49 1023.23 1022.95 1022.67 1022.37 1022.06 1021.76 1021.45 1021.14
1023.95 1024.01 1024.05 1024.08 1024.07 1024.03 1023.96 1023.88 1023.81 1023.78 1023.80 1023.89 1024.05 1024.27 1024.53 1024.80 1025.05 1025.26 1025.39 1025.44 1025.41 1025.32 1025.17 1024.98 1024.78 1024.57 1024.36 1024.14 1023.91 1023.67 1023.40 1023.11 1022.80 1022.48 1022.14 1021.81 1021.48 1021.16
1024.24 1024.30 1024.34 1024.36 1024.35 1024.30 1024.22 1024.13 1024.04 1023.98 1023.96 1024.01 1024.12 1024.28 1024.48 1024.69 1024.88 1025.04 1025.14 1025.18 1025.16 1025.09 1024.99 1024.86 1024.72 1024.58 1024.43 1024.26 1024.07 1023.85 1023.60 1023.30 1022.98 1022.63 1022.27 1021.91 1021.56 1021.22
1024.53 1024.58 1024.62 1024.64 1024.62 1024.57 1024.49 1024.41 1024.32 1024.25 1024.22 1024.24 1024.31 1024.41 1024.54 1024.68 1024.80 1024.89 1024.94 1024.94 1024.91 1024.84 1024.77 1024.68 1024.60 1024.52 1024.43 1024.32 1024.18 1024.00 1023.77 1023.49 1023.16 1022.80 1022.43 1022.05 1021.68 1021.32
1024.78 1024.83 1024.87 1024.89 1024.87 1024.84 1024.78 1024.71 1024.64 1024.59 1024.57 1024.57 1024.61 1024.67 1024.74 1024.80 1024.85 1024.86 1024.84 1024.78 1024.71 1024.64 1024.56 1024.50 1024.46 1024.42 1024.38 1024.33 1024.23 1024.09 1023.89 1023.63 1023.31 1022.96 1022.58 1022.19 1021.81 1021.43
1025.00 1025.05 1025.09 1025.11 1025.12 1025.10 1025.06 1025.03 1024.99 1024.97 1024.96 1024.97 1025.00 1025.03 1025.05 1025.05 1025.02 1024.96 1024.87 1024.75 1024.64 1024.53 1024.44 1024.37 1024.34 1024.33 1024.32 1024.29 1024.23 1024.12 1023.94 1023.70 1023.40 1023.06 1022.68 1022.29 1021.91 1021.53
1025.18 1025.24 1025.29 1025.33 1025.35 1025.35 1025.35 1025.35 1025.35 1025.36 1025.38 1025.40 1025.43 1025.45 1025.44 1025.40 1025.32 1025.20 1025.05 1024.88 1024.71 1024.56 1024.43 1024.35 1024.30 1024.28 1024.27 1024.25 1024.19 1024.09 1023.92 1023.69 1023.41 1023.07 1022.71 1022.33 1021.95 1021.58
1025.31 1025.40 1025.47 1025.53 1025.57 1025.61 1025.63 1025.65 1025.69 1025.73 1025.77 1025.82 1025.86 1025.87 1025.86 1025.79 1025.69 1025.53 1025.34 1025.14 1024.93 1024.74 1024.58 1024.46 1024.38 1024.32 1024.28 1024.23 1024.15 1024.03 1023.85 1023.61 1023.33 1023.00 1022.64 1022.27 1021.91 1021.55
1025.39 1025.52 1025.63 1025.72 1025.78 1025.84 1025.89 1025.93 1025.99 1026.05 1026.12 1026.18 1026.23 1026.26 1026.25 1026.19 1026.08 1025.93 1025.73 1025.51 1025.28 1025.06 1024.87 1024.70 1024.57 1024.46 1024.37 1024.26 1024.13 1023.97 1023.75 1023.49 1023.19 1022.85 1022.50 1022.14 1021.78 1021.44
1025.39 1025.57 1025.73 1025.86 1025.96 1026.04 1026.10 1026.17 1026.23 1026.30 1026.38 1026.46 1026.52 1026.57 1026.58 1026.54 1026.46 1026.32 1026.14 1025.93 1025.71 1025.48 1025.26 1025.06 1024.88 1024.71 1024.54 1024.36 1024.17 1023.93 1023.66 1023.36 1023.02 1022.67 1022.30 1021.94 1021.59 1021.26
1025.30 1025.55 1025.76 1025.93 1026.07 1026.17 1026.25 1026.32 1026.39 1026.46 1026.54 1026.63 1026.71 1026.77 1026.81 1026.81 1026.77 1026.68 1026.54 1026.36 1026.16 1025.94 1025.71 1025.48 1025.25 1025.02 1024.78 1024.53 1024.25 1023.94 1023.61 1023.25 1022.87 1022.48 1022.09 1021.72 1021.37 1021.04
1025.09 1025.41 1025.68 1025.90 1026.08 1026.21 1026.31 1026.39 1026.46 1026.53 1026.61 1026.70 1026.79 1026.88 1026.95 1026.99 1026.99 1026.95 1026.87 1026.74 1026.57 1026.37 1026.15 1025.90 1025.64 1025.36 1025.05 1024.73 1024.37 1024.00 1023.59 1023.17 1022.74 1022.32 1021.90 1021.51 1021.14 1020.81
1024.78 1025.15 1025.48 1025.76 1025.97 1026.13 1026.26 1026.35 1026.43 1026.50 1026.59 1026.68 1026.79 1026.89 1026.99 1027.08 1027.13 1027.15 1027.12 1027.04 1026.91 1026.73 1026.52 1026.27 1025.98 1025.66 1025.30 1024.92 1024.51 1024.07 1023.61 1023.14 1022.67 1022.20 1021.76 1021.34 1020.96 1020.61
1024.35 1024.77 1025.15 1025.47 1025.73 1025.93 1026.09 1026.20 1026.30 1026.39 1026.49 1026.60 1026.72 1026.85 1026.98 1027.09 1027.19 1027.25 1027.27 1027.23 1027.14 1026.99 1026.78 1026.53 1026.23 1025.88 1025.49 1025.07 1024.61 1024.13 1023.64 1023.13 1022.63 1022.14 1021.67 1021.23 1020.83 1020.46
1023.81 1024.28 1024.70 1025.06 1025.36 1025.61 1025.80 1025.95 1026.09 1026.21 1026.33 1026.46 1026.61 1026.76 1026.92 1027.07 1027.19 1027.29 1027.33 1027.32 1027.25 1027.12 1026.92 1026.67 1026.36 1026.00 1025.59 1025.15 1024.67 1024.17 1023.66 1023.14 1022.63 1022.13 1021.65 1021.20 1020.79 1020.40
1023.19 1023.68 1024.12 1024.52 1024.87 1025.16 1025.40 1025.61 1025.80 1025.96 1026.13 1026.30 1026.48 1026.66 1026.84 1027.01 1027.16 1027.27 1027.33 1027.33 1027.27 1027.14 1026.95 1026.69 1026.37 1026.00 1025.59 1025.15 1024.67 1024.17 1023.67 1023.16 1022.66 1022.17 1021.69 1021.25 1020.83 1020.44
1022.49 1022.98 1023.45 1023.87 1024.26 1024.61 1024.92 1025.19 1025.44 1025.67 1025.89 1026.11 1026.33 1026.55 1026.75 1026.94 1027.10 1027.22 1027.28 1027.29 1027.22 1027.09 1026.89 1026.62 1026.30 1025.93 1025.52 1025.08 1024.62 1024.14 1023.66 1023.18 1022.70 1022.24 1021.79 1021.36 1020.95 1020.57
1021.71 1022.20 1022.67 1023.13 1023.57 1023.97 1024.35 1024.70 1025.02 1025.33 1025.62 1025.90 1026.17 1026.42 1026.66 1026.86 1027.03 1027.15 1027.21 1027.21 1027.14 1026.99 1026.78 1026.51 1026.18 1025.81 1025.41 1024.98 1024.54 1024.10 1023.65 1023.21 1022.77 1022.34 1021.93 1021.53 1021.14 1020.77
1020.84 1021.33 1021.82 1022.31 1022.80 1023.27 1023.72 1024.15 1024.56 1024.95 1025.32 1025.67 1025.99 1026.29 1026.55 1026.78 1026.95 1027.08 1027.14 1027.13 1027.05 1026.89 1026.67 1026.39 1026.06 1025.69 1025.30 1024.89 1024.47 1024.05 1023.64 1023.24 1022.85 1022.46 1022.09 1021.72 1021.37 1021.01
1019.89 1020.39 1020.90 1021.43 1021.97 1022.51 1023.05 1023.57 1024.06 1024.54 1024.99 1025.40 1025.78 1026.12 1026.42 1026.67 1026.87 1027.00 1027.06 1027.06 1026.97 1026.81 1026.59 1026.31 1025.97 1025.61 1025.22 1024.82 1024.42 1024.03 1023.65 1023.28 1022.93 1022.58 1022.25 1021.92 1021.58 1021.25
1018.88 1019.38 1019.93 1020.51 1021.11 1021.73 1022.35 1022.96 1023.54 1024.10 1024.63 1025.11 1025.55 1025.93 1026.27 1026.55 1026.77 1026.92 1027.00 1027.00 1026.92 1026.77 1026.55 1026.27 1025.94 1025.57 1025.19 1024.79 1024.40 1024.02 1023.66 1023.32 1023.00 1022.69 1022.38 1022.07 1021.76 1021.44
1017.81 1018.34 1018.94 1019.58 1020.25 1020.95 1021.65 1022.35 1023.02 1023.66 1024.25 1024.80 1025.29 1025.72 1026.10 1026.41 1026.65 1026.83 1026.93 1026.95 1026.89 1026.75 1026.54 1026.27 1025.95 1025.58 1025.20 1024.80 1024.41 1024.04 1023.69 1023.36 1023.05 1022.75 1022.46 1022.17 1021.87 1021.55
1016.74 1017.32 1017.96 1018.67 1019.42 1020.20 1020.99 1021.77 1022.52 1023.23 1023.88 1024.48 1025.02 1025.50 1025.91 1026.25 1026.52 1026.73 1026.85 1026.90 1026.87 1026.76 1026.56 1026.30 1025.98 1025.62 1025.24 1024.84 1024.44 1024.07 1023.71 1023.38 1023.08 1022.78 1022.50 1022.21 1021.90 1021.58
Thickness
5669 5668 5667 5666 5666 5665 5664 5663 5661 5658 5656 5654 5653 5651 5650 5648 5646 5647 5645 5642 5640 5639 5638 5637 5636 5636 5635 5634 5633 5632 5632 5631 5630 5629 5628 5628 5628 5627
5665 5665 5664 5664 5663 5661 5661 5661 5661 5659 5655 5653 5650 5649 5646 5645 5642 5642 5640 5637 5635 5633 5632 5631 5630 5629 5628 5627 5626 5625 5623 5623 5622 5621 5620 5619 5619 5618
5664 5663 5662 5660 5659 5659 5658 5657 5656 5656 5652 5649 5648 5646 5643 5641 5638 5637 5636 5635 5632 5629 5627 5625 5624 5622 5621 5620 5618 5616 5615 5614 5613 5612 5612 5611 5611 5610
5662 5661 5659 5657 5656 5655 5654 5653 5652 5651 5649 5645 5643 5641 5639 5637 5635 5633 5632 5631 5628 5624 5622 5620 5618 5615 5613 5611 5610 5608 5607 5605 5604 5603 5603 5603 5602 5602
5660 5658 5657 5655 5653 5652 5650 5649 5648 5647 5645 5643 5640 5637 5635 5632 5630 5629 5628 5626 5624 5620 5617 5615 5612 5609 5607 5604 5602 5600 5599 5597 5596 5595 5594 5594 5593 5593
5657 5655 5654 5652 5651 5649 5647 5646 5644 5642 5640 5639 5636 5633 5630 5628 5626 5624 5623 5621 5619 5617 5613 5610 5607 5604 5601 5598 5596 5593 5591 5589 5587 5586 5585 5584 5583 5583
5654 5652 5650 5647 5645 5644 5643 5642 5640 5638 5636 5634 5632 5629 5627 5623 5622 5620 5618 5617 5615 5612 5610 5608 5605 5602 5598 5594 5590 5586 5583 5581 5579 5578 5576 5575 5574 5573
5651 5649 5646 5643 5640 5637 5636 5635 5634 5634 5633 5631 5629 5626 5624 5621 5618 5615 5614 5612 5610 5607 5603 5602 5599 5597 5593 5590 5585 5580 5577 5574 5572 5570 5568 5566 5565 5564
5649 5646 5643 5640 5638 5638 5634 5630 5629 5626 5625 5626 5625 5623 5620 5618 5614 5611 5609 5607 5604 5601 5597 5597 5594 5591 5587 5584 5578 5574 5571 5568 5565 5563 5561 5559 5557 5555
5645 5643 5640 5638 5635 5634 5633 5630 5628 5625 5621 5620 5620 5618 5614 5611 5608 5606 5604 5601 5599 5594 5590 5589 5588 5585 5582 5578 5572 5568 5564 5561 5559 5556 5554 5552 5550 5548
5641 5639 5636 5634 5629 5626 5626 5626 5624 5621 5616 5613 5610 5608 5605 5602 5600 5599 5597 5595 5593 5591 5585 5582 5581 5578 5576 5572 5568 5562 5558 5555 5552 5549 5547 5545 5543 5541
5636 5634 5629 5627 5624 5621 5622 5621 5619 5617 5613 5610 5606 5603 5600 5597 5593 5592 5591 5589 5587 5585 5580 5574 5573 5570 5569 5567 5562 5557 5553 5550 5546 5543 5541 5538 5535 5534
5632 5629 5626 5620 5617 5615 5615 5615 5613 5610 5608 5605 5602 5599 5596 5593 5589 5586 5583 5581 5578 5576 5572 5567 5564 5561 5559 5558 5555 5551 5547 5544 5541 5538 5535 5531 5528 5525
5626 5624 5620 5615 5612 5610 5608 5607 5604 5601 5601 5599 5596 5593 5590 5587 5583 5579 5575 5571 5568 5566 5562 5558 5556 5552 5550 5549 5547 5544 5540 5537 5534 5531 5529 5525 5522 5519
5620 5616 5612 5608 5606 5604 5601 5599 5597 5596 5595 5592 5590 5587 5583 5579 5575 5571 5567 5563 5560 5557 5553 5549 5546 5544 5541 5540 5539 5536 5533 5531 5527 5525 5522 5519 5517 5514
5611 5608 5604 5601 5599 5598 5595 5593 5591 5590 5588 5586 5583 5579 5575 5571 5567 5563 5559 5556 5553 5550 5546 5542 5538 5535 5534 5532 5530 5528 5526 5523 5520 5517 5514 5512 5510 5507
5605 5603 5601 5598 5596 5594 5591 5588 5585 5582 5579 5577 5574 5571 5567 5563 5560 5556 5552 5549 5546 5544 5541 5535 5531 5527 5525 5523 5522 5521 5518 5516 5512 5509 5505 5504 5503 5500
5598 5597 5595 5593 5590 5588 5585 5581 5578 5575 5572 5569 5566 5563 5560 5556 5553 5549 5545 5542 5539 5537 5533 5529 5524 5520 5518 5516 5511 5511 5509 5506 5504 5500 5497 5495 5495 5492
5592 5592 5590 5587 5583 5580 5577 5574 5571 5568 5564 5561 5558 5556 5553 5550 5546 5543 5539 5535 5532 5529 5526 5521 5517 5513 5512 5512 5509 5500 5499 5497 5494 5491 5488 5486 5486 5484
5585 5584 5582 5579 5576 5573 5569 5566 5563 5560 5557 5554 5551 5548 5546 5543 5539 5536 5532 5528 5525 5522 5518 5514 5510 5506 5504 5503 5501 5497 5489 5488 5485 5483 5481 5478 5476 5473
5578 5576 5574 5571 5568 5565 5562 5558 5555 5552 5549 5546 5543 5540 5538 5534 5531 5528 5524 5520 5516 5514 5511 5508 5503 5497 5494 5492 5491 5490 5485 5479 5475 5473 5471 5470 5469 5467
5571 5568 5566 5563 5560 5557 5554 5551 5548 5545 5542 5538 5535 5532 5529 5526 5523 5519 5515 5511 5508 5506 5502 5498 5493 5489 5486 5484 5484 5482 5478 5473 5468 5464 5460 5458 5458 5459
5563 5560 5557 5554 5552 5549 5546 5543 5540 5538 5535 5531 5528 5524 5521 5518 5515 5511 5507 5503 5500 5497 5493 5489 5485 5482 5479 5475 5474 5472 5469 5466 5462 5459 5456 5452 5448 5446